When you browse on this site, cookies collect data to enhance your experience and personalize the content and advertising you see.
Visit our Privacy Policy to learn more. By continuing to use the site, you agree to this use of cookies and data.
  • In Netherlands
  • List of Countries
  • For 7 days
  • Water Temperature
  • Satellite Maps
  • Weather Map
  • Weather Widgets
  • user-avatar
    Login

    Hourly Weather Komsomolskiy

    Today, 24 April, Wednesday

    Time Temperature Precipitation Wind Pressure Humidity
    00:00 +11°C° 0 mm 3 mps 748 mmHg 61%
    01:00 +10°C° 0 mm 3 mps 748 mmHg 63%
    02:00 +10°C° 0 mm 3 mps 748 mmHg 65%
    03:00 +9°C° 0 mm 2 mps 748 mmHg 64%
    04:00 +9°C° 0 mm 2 mps 749 mmHg 66%
    05:00 +9°C° 0 mm 2 mps 749 mmHg 68%
    06:00 +8°C° 0 mm 2 mps 749 mmHg 70%
    07:00 +10°C° 0 mm 3 mps 749 mmHg 64%
    08:00 +12°C° 0 mm 3 mps 749 mmHg 59%
    09:00 +14°C° 0 mm 3 mps 749 mmHg 54%
    10:00 +16°C° 0 mm 3 mps 749 mmHg 49%
    11:00 +18°C° 0 mm 3 mps 749 mmHg 44%
    12:00 +19°C° 0 mm 4 mps 749 mmHg 39%
    13:00 +20°C° 0 mm 4 mps 749 mmHg 37%
    14:00 +21°C° 0 mm 4 mps 749 mmHg 36%
    15:00 +21°C° 0 mm 4 mps 748 mmHg 35%
    16:00 +21°C° 0 mm 3 mps 748 mmHg 36%
    17:00 +21°C° 0 mm 3 mps 748 mmHg 38%
    18:00 +20°C° 0 mm 3 mps 748 mmHg 39%
    19:00 +19°C° 0 mm 2 mps 748 mmHg 42%
    20:00 +17°C° 0 mm 2 mps 748 mmHg 46%
    21:00 +16°C° 0 mm 2 mps 748 mmHg 49%
    22:00 +15°C° 0 mm 2 mps 748 mmHg 52%
    23:00 +14°C° 0 mm 2 mps 748 mmHg 54%

    Tomorrow, 25 April, Thursday

    Time Temperature Precipitation Wind Pressure Humidity
    00:00 +14°C° 0 mm 2 mps 748 mmHg 56%
    01:00 +13°C° 0 mm 2 mps 748 mmHg 58%
    02:00 +13°C° 0 mm 2 mps 748 mmHg 60%
    03:00 +12°C° 0 mm 2 mps 748 mmHg 62%
    04:00 +12°C° 0 mm 2 mps 748 mmHg 63%
    05:00 +12°C° 0 mm 2 mps 748 mmHg 65%
    06:00 +12°C° 0 mm 2 mps 749 mmHg 67%
    07:00 +13°C° 0 mm 2 mps 749 mmHg 62%
    08:00 +15°C° 0 mm 2 mps 749 mmHg 56%
    09:00 +17°C° 0 mm 2 mps 749 mmHg 51%
    10:00 +19°C° 0 mm 3 mps 749 mmHg 46%
    11:00 +20°C° 0 mm 3 mps 748 mmHg 42%
    12:00 +21°C° 0 mm 3 mps 748 mmHg 37%
    13:00 +22°C° 0 mm 3 mps 748 mmHg 36%
    14:00 +22°C° 0 mm 3 mps 748 mmHg 35%
    15:00 +24°C° 0 mm 3 mps 748 mmHg 33%
    16:00 +23°C° 0 mm 2 mps 747 mmHg 35%
    17:00 +23°C° 0 mm 2 mps 747 mmHg 37%
    18:00 +23°C° 0 mm 2 mps 747 mmHg 39%
    19:00 +21°C° 0 mm 2 mps 747 mmHg 42%
    20:00 +20°C° 0 mm 1 mps 747 mmHg 45%
    21:00 +19°C° 0 mm 1 mps 747 mmHg 48%
    22:00 +19°C° 0 mm 1 mps 747 mmHg 48%
    23:00 +18°C° 0 mm 1 mps 747 mmHg 49%

    Day after tomorrow, 26 April, Friday

    Time Temperature Precipitation Wind Pressure Humidity
    00:00 +18°C° 0 mm 1 mps 747 mmHg 49%
    01:00 +16°C° 0 mm 1 mps 747 mmHg 50%
    02:00 +16°C° 0 mm 1 mps 746 mmHg 51%
    03:00 +15°C° 0 mm 2 mps 746 mmHg 52%
    04:00 +15°C° 0.3 mm 1 mps 746 mmHg 55%
    05:00 +14°C° 0.3 mm 1 mps 746 mmHg 59%
    06:00 +14°C° 0.3 mm 1 mps 746 mmHg 62%
    07:00 +15°C° 0.2 mm 2 mps 746 mmHg 59%
    08:00 +15°C° 0.2 mm 2 mps 746 mmHg 56%
    09:00 +16°C° 0.2 mm 3 mps 746 mmHg 53%
    10:00 +18°C° 0.1 mm 3 mps 746 mmHg 50%
    11:00 +19°C° 0.1 mm 3 mps 746 mmHg 46%
    12:00 +20°C° 0.1 mm 3 mps 746 mmHg 43%
    13:00 +20°C° 0 mm 3 mps 746 mmHg 43%
    14:00 +21°C° 0 mm 3 mps 745 mmHg 43%
    15:00 +21°C° 0 mm 3 mps 745 mmHg 43%
    16:00 +20°C° 0.7 mm 2 mps 745 mmHg 48%
    17:00 +20°C° 0.7 mm 1 mps 744 mmHg 54%
    18:00 +20°C° 0.7 mm 1 mps 744 mmHg 59%
    19:00 +18°C° 0.5 mm 1 mps 744 mmHg 64%
    20:00 +16°C° 0.5 mm 1 mps 744 mmHg 70%
    21:00 +15°C° 0.5 mm 1 mps 744 mmHg 75%
    22:00 +14°C° 0 mm 1 mps 743 mmHg 75%
    23:00 +14°C° 0 mm 1 mps 743 mmHg 75%

    27 April, Saturday

    Time Temperature Precipitation Wind Pressure Humidity
    00:00 +14°C° 0 mm 1 mps 743 mmHg 74%
    01:00 +14°C° 0 mm 1 mps 743 mmHg 75%
    02:00 +13°C° 0 mm 2 mps 743 mmHg 75%
    03:00 +13°C° 0 mm 2 mps 742 mmHg 75%
    04:00 +13°C° 0 mm 2 mps 742 mmHg 75%
    05:00 +13°C° 0 mm 2 mps 742 mmHg 75%
    06:00 +13°C° 0 mm 2 mps 742 mmHg 75%
    07:00 +15°C° 0 mm 2 mps 741 mmHg 70%
    08:00 +16°C° 0 mm 3 mps 741 mmHg 65%
    09:00 +17°C° 0 mm 3 mps 741 mmHg 60%
    10:00 +19°C° 0 mm 3 mps 741 mmHg 54%
    11:00 +20°C° 0 mm 4 mps 740 mmHg 47%
    12:00 +21°C° 0 mm 4 mps 740 mmHg 41%
    13:00 +21°C° 0 mm 4 mps 740 mmHg 43%
    14:00 +20°C° 0 mm 3 mps 739 mmHg 45%
    15:00 +20°C° 0 mm 3 mps 739 mmHg 48%
    16:00 +19°C° 0 mm 3 mps 738 mmHg 51%
    17:00 +19°C° 0 mm 3 mps 738 mmHg 54%
    18:00 +18°C° 0 mm 3 mps 738 mmHg 58%
    19:00 +17°C° 0 mm 3 mps 738 mmHg 61%
    20:00 +16°C° 0 mm 3 mps 737 mmHg 64%
    21:00 +14°C° 0 mm 3 mps 737 mmHg 67%
    22:00 +15°C° 0.1 mm 2 mps 737 mmHg 70%
    23:00 +14°C° 0.1 mm 2 mps 737 mmHg 74%

    28 April, Sunday

    Time Temperature Precipitation Wind Pressure Humidity
    00:00 +14°C° 0.1 mm 2 mps 737 mmHg 77%
    01:00 +13°C° 0.3 mm 1 mps 737 mmHg 79%
    02:00 +13°C° 0.3 mm 1 mps 737 mmHg 81%
    03:00 +13°C° 0.3 mm 1 mps 736 mmHg 83%
    04:00 +13°C° 0.1 mm 1 mps 736 mmHg 85%
    05:00 +12°C° 0.1 mm 1 mps 736 mmHg 86%
    06:00 +12°C° 0.1 mm 1 mps 736 mmHg 88%
    07:00 +12°C° 0.1 mm 2 mps 737 mmHg 87%
    08:00 +12°C° 0.1 mm 4 mps 737 mmHg 86%
    09:00 +12°C° 0.1 mm 5 mps 737 mmHg 85%
    10:00 +13°C° 0 mm 5 mps 738 mmHg 78%
    11:00 +13°C° 0 mm 6 mps 738 mmHg 70%
    12:00 +14°C° 0 mm 7 mps 739 mmHg 63%
    13:00 +14°C° 0 mm 7 mps 739 mmHg 59%
    14:00 +14°C° 0 mm 7 mps 739 mmHg 55%
    15:00 +14°C° 0 mm 7 mps 740 mmHg 51%
    16:00 +13°C° 0 mm 6 mps 740 mmHg 49%
    17:00 +13°C° 0 mm 6 mps 740 mmHg 47%
    18:00 +11°C° 0 mm 6 mps 740 mmHg 44%
    19:00 +9°C° 0 mm 6 mps 741 mmHg 47%
    20:00 +8°C° 0 mm 5 mps 742 mmHg 50%
    21:00 +7°C° 0 mm 4 mps 742 mmHg 52%
    22:00 +6°C° 0 mm 4 mps 743 mmHg 54%
    23:00 +5°C° 0 mm 4 mps 743 mmHg 55%

    29 April, Monday

    Time Temperature Precipitation Wind Pressure Humidity
    00:00 +5°C° 0 mm 4 mps 744 mmHg 57%
    01:00 +4°C° 0 mm 4 mps 744 mmHg 58%
    02:00 +3°C° 0 mm 4 mps 744 mmHg 59%
    03:00 +3°C° 0 mm 4 mps 744 mmHg 60%
    04:00 +1°C° 0 mm 4 mps 745 mmHg 62%
    05:00 +2°C° 0 mm 3 mps 745 mmHg 63%
    06:00 +2°C° 0 mm 3 mps 745 mmHg 65%
    07:00 +3°C° 0 mm 4 mps 746 mmHg 59%
    08:00 +5°C° 0 mm 4 mps 746 mmHg 53%
    09:00 +6°C° 0 mm 4 mps 746 mmHg 47%
    10:00 +7°C° 0 mm 4 mps 746 mmHg 44%
    11:00 +8°C° 0 mm 4 mps 746 mmHg 40%
    12:00 +8°C° 0 mm 4 mps 746 mmHg 37%
    13:00 +10°C° 0 mm 4 mps 746 mmHg 36%
    14:00 +10°C° 0 mm 3 mps 745 mmHg 35%
    15:00 +11°C° 0 mm 3 mps 745 mmHg 34%
    16:00 +10°C° 0 mm 3 mps 745 mmHg 35%
    17:00 +10°C° 0 mm 3 mps 745 mmHg 36%
    18:00 +10°C° 0 mm 3 mps 745 mmHg 37%
    19:00 +9°C° 0 mm 2 mps 745 mmHg 40%
    20:00 +8°C° 0 mm 2 mps 745 mmHg 42%
    21:00 +8°C° 0 mm 2 mps 745 mmHg 45%
    22:00 +8°C° 0 mm 1 mps 745 mmHg 46%
    23:00 +8°C° 0 mm 1 mps 745 mmHg 47%
    Show more